Wind_Speed
47 45 44 46 55 71 88 96 96 92 87 83 78 75 73 69 70 74 75 73 72 71 69 66 63 61 58 56 54 51 48 47 45 45 47 46 47 49
44 42 40 42 46 57 75 90 96 95 91 86 82 79 76 71 67 68 72 72 72 72 71 68 65 62 60 59 57 54 52 50 49 48 47 47 45 43
41 39 38 38 41 47 60 77 89 94 93 88 85 82 79 76 71 66 67 68 67 69 70 69 67 65 63 61 60 58 56 54 53 52 51 50 48 46
39 38 36 36 37 40 48 62 77 88 91 90 87 84 82 80 77 71 68 67 65 65 66 67 67 66 65 64 62 61 59 57 56 55 54 53 51 49
37 37 35 35 35 36 42 51 64 76 85 87 86 85 83 82 79 76 72 69 67 64 63 64 65 65 65 65 64 62 60 59 58 57 56 55 54 52
36 36 35 34 34 35 38 44 53 64 74 80 82 82 82 82 80 76 74 71 68 65 63 62 62 63 64 64 63 62 61 60 58 56 55 55 55 55
35 36 36 35 35 35 36 39 46 54 62 69 74 76 78 80 79 76 73 70 67 66 64 63 62 61 62 62 63 63 62 61 59 57 56 56 56 55
34 35 35 35 35 36 36 37 40 46 53 60 65 69 72 75 76 75 72 70 68 66 64 64 63 62 60 59 59 60 61 61 61 60 59 58 57 57
34 35 35 36 36 36 36 37 38 40 46 51 57 63 67 70 71 71 71 69 67 66 65 64 63 62 61 59 58 58 58 59 60 60 59 60 60 59
34 35 35 35 36 37 37 37 38 39 41 45 49 53 58 63 66 68 68 67 65 64 65 63 62 62 61 60 59 58 58 58 57 56 57 56 56 57
34 36 36 36 36 37 38 38 39 39 40 41 43 47 51 55 59 62 64 64 64 64 63 62 62 62 62 62 62 61 60 60 59 58 58 58 60 61
34 37 38 37 37 37 37 38 39 39 39 38 38 40 43 48 53 57 59 59 59 60 61 62 63 63 63 63 63 63 63 64 63 64 64 64 65 66
33 38 40 39 38 38 37 37 37 38 38 37 37 36 37 42 48 52 54 57 58 58 59 61 62 61 61 61 63 63 64 64 64 65 66 66 67 68
32 38 42 42 41 40 38 37 36 36 36 36 36 35 35 37 43 49 52 55 57 59 59 60 61 60 59 60 60 61 62 64 65 66 67 67 67 67
29 38 42 44 44 43 41 39 38 37 36 37 37 36 36 38 42 47 52 54 56 60 61 61 62 63 62 62 62 62 61 62 63 64 66 67 67 67
24 34 41 45 46 45 44 42 40 39 38 39 39 39 40 42 46 48 51 53 54 57 59 58 58 58 59 61 62 62 61 61 60 60 60 62 62 63
18 28 37 43 46 47 46 45 43 41 41 41 41 42 43 46 48 49 52 52 51 52 52 51 49 50 51 52 52 53 54 55 55 56 56 56 57 57
13 21 31 40 45 47 48 47 45 44 43 43 43 43 44 46 48 49 49 50 50 50 48 48 47 47 46 45 45 45 46 47 49 50 51 51 51 50
8 15 24 34 42 46 48 49 48 47 46 45 45 45 44 45 46 47 46 47 48 50 49 49 48 48 47 47 47 47 47 47 48 48 48 48 47 47
5 9 17 27 36 43 46 48 49 49 48 47 46 46 46 45 45 45 46 46 47 48 48 48 49 50 50 50 49 50 51 51 51 50 49 48 47 47
7 5 10 18 29 38 44 46 48 49 50 50 49 48 48 48 47 47 47 47 47 48 49 49 49 50 51 51 50 50 51 51 51 51 50 48 47 45
21 9 4 9 18 29 38 44 47 48 49 51 51 51 50 50 50 49 49 49 49 49 49 49 49 50 50 50 50 49 49 49 49 49 47 45 43 42
42 29 15 4 7 16 28 38 44 47 48 50 52 52 52 52 52 51 52 51 51 50 50 49 50 50 50 50 49 48 47 47 47 46 44 43 41 41
Wind_Direction
245 248 249 247 239 230 225 220 216 216 218 217 217 219 220 221 223 225 226 227 227 228 230 230 230 230 231 232 234 235 238 242 242 241 240 237 235 234
242 244 246 245 241 232 225 221 218 215 215 217 218 218 218 218 219 222 224 226 227 228 229 229 230 230 230 232 233 235 237 240 242 243 242 241 237 234
239 240 241 242 239 232 225 222 219 216 214 215 218 218 218 218 218 220 222 225 226 228 228 229 229 230 231 232 233 235 237 239 241 242 242 240 240 238
235 235 236 237 236 230 224 221 220 217 215 214 217 219 219 219 219 220 222 224 226 228 229 229 228 229 230 232 234 236 238 239 240 241 241 241 240 241
229 229 231 232 231 228 223 220 219 218 216 214 216 219 220 220 220 220 222 224 226 227 228 229 229 228 228 230 233 236 238 239 240 240 240 241 240 241
222 223 224 226 227 225 223 219 217 217 217 216 216 218 220 221 222 222 222 224 226 227 228 229 229 229 228 229 231 234 236 238 239 239 239 239 240 241
215 216 218 220 221 222 221 217 214 214 215 216 216 218 220 222 223 223 224 225 226 227 228 229 229 230 230 230 230 232 234 236 238 239 239 239 240 242
209 210 212 215 217 218 217 214 212 212 213 215 215 217 219 221 222 224 225 226 227 227 229 230 230 231 231 231 231 232 234 236 237 239 240 241 242 244
204 205 207 210 212 213 212 209 208 208 209 211 214 215 217 219 222 224 225 226 228 229 230 232 232 232 232 231 231 232 234 235 236 239 241 242 244 246
200 200 203 206 209 210 208 207 206 206 207 209 211 213 215 218 221 223 225 225 226 228 230 232 233 234 233 233 233 233 235 236 237 239 239 240 241 242
198 198 200 203 206 208 207 206 206 206 206 207 209 209 209 211 215 219 221 221 223 225 227 229 230 233 234 235 235 235 236 237 237 237 237 237 237 237
198 197 197 200 203 205 206 207 208 208 209 208 207 206 206 206 208 211 214 214 217 221 224 226 230 232 233 234 236 236 238 238 239 239 240 240 241 242
200 198 197 197 200 202 205 207 208 209 209 209 209 208 208 207 206 205 206 206 211 215 220 223 226 228 230 232 233 234 234 235 236 237 238 240 242 244
204 201 199 198 198 200 203 205 206 206 206 206 207 208 209 207 204 202 202 202 207 212 216 220 223 223 224 225 227 229 231 233 234 235 237 239 240 242
210 206 203 201 199 199 201 202 203 203 203 203 203 203 202 201 199 199 199 201 206 211 215 220 223 224 225 227 229 231 233 235 236 238 238 240 242 244
216 212 208 205 203 201 201 201 201 201 202 202 202 202 200 197 196 197 199 201 204 208 213 218 222 225 227 230 232 234 236 238 239 241 242 244 245 247
221 216 213 210 208 205 204 202 202 202 202 202 203 204 203 201 199 197 197 197 198 201 205 209 213 217 221 225 227 230 233 236 238 240 242 244 246 248
226 220 216 214 212 210 208 206 204 203 204 204 205 205 206 207 206 204 201 200 198 198 198 200 203 206 209 212 215 220 225 228 232 236 239 242 244 246
239 224 219 217 215 214 213 211 208 207 206 207 207 208 209 210 211 211 211 209 207 206 205 204 205 207 209 212 214 218 223 227 231 235 238 240 242 245
275 237 223 218 217 216 216 215 213 211 211 210 210 211 212 212 213 213 214 214 214 214 214 215 215 215 217 219 222 226 229 232 235 237 239 242 244 248
348 277 235 221 218 218 217 217 216 216 214 214 213 214 215 215 215 214 214 214 215 217 218 219 220 222 223 225 228 230 232 235 237 239 242 245 248 251
29 12 291 236 221 218 218 218 218 218 218 217 217 216 217 218 217 217 217 217 217 218 219 220 222 224 226 228 230 232 234 235 238 240 242 244 247 251
36 34 28 344 241 223 220 219 219 220 220 220 220 219 219 220 220 220 221 220 220 221 222 223 224 225 227 228 230 232 233 234 234 236 238 242 246 250
Height
5416 5421 5425 5429 5432 5441 5456 5475 5496 5513 5530 5548 5561 5575 5586 5599 5611 5623 5634 5645 5655 5665 5675 5686 5696 5705 5714 5721 5729 5735 5742 5748 5754 5759 5764 5769 5774 5780
5400 5406 5411 5415 5419 5425 5436 5452 5472 5492 5511 5529 5543 5556 5569 5583 5596 5607 5618 5629 5640 5651 5661 5672 5683 5693 5701 5709 5717 5724 5731 5737 5742 5748 5753 5758 5764 5770
5386 5393 5398 5402 5407 5412 5420 5434 5451 5471 5493 5512 5524 5539 5553 5567 5581 5592 5603 5615 5626 5636 5647 5658 5669 5679 5688 5696 5704 5712 5719 5725 5731 5736 5741 5747 5754 5760
5374 5380 5387 5392 5397 5402 5409 5420 5434 5452 5474 5493 5508 5522 5536 5551 5565 5578 5590 5601 5612 5622 5632 5643 5654 5665 5674 5683 5691 5699 5706 5713 5719 5724 5730 5737 5743 5749
5362 5370 5377 5383 5389 5395 5401 5409 5422 5438 5457 5476 5493 5507 5522 5535 5550 5564 5576 5587 5598 5608 5618 5629 5640 5650 5660 5669 5677 5685 5693 5700 5706 5712 5718 5725 5732 5738
5352 5360 5368 5375 5381 5387 5393 5401 5413 5427 5442 5461 5478 5493 5507 5520 5534 5550 5563 5574 5585 5595 5605 5615 5626 5635 5646 5656 5665 5673 5679 5686 5693 5700 5707 5714 5720 5726
5342 5351 5359 5367 5373 5379 5386 5395 5405 5417 5431 5447 5463 5477 5491 5505 5521 5536 5548 5560 5570 5580 5591 5602 5614 5624 5632 5641 5650 5658 5667 5674 5681 5688 5695 5702 5708 5714
5334 5343 5352 5360 5367 5373 5381 5389 5398 5409 5422 5435 5449 5463 5476 5491 5505 5519 5533 5545 5557 5569 5579 5589 5599 5609 5619 5629 5637 5646 5654 5662 5669 5676 5684 5690 5697 5702
5327 5336 5345 5353 5360 5368 5376 5384 5393 5403 5414 5425 5437 5449 5463 5479 5494 5508 5519 5531 5544 5556 5566 5576 5586 5596 5607 5616 5624 5633 5641 5649 5656 5664 5671 5678 5684 5690
5321 5329 5338 5346 5354 5362 5371 5379 5388 5397 5407 5418 5430 5442 5454 5467 5481 5494 5506 5519 5531 5541 5552 5563 5573 5583 5593 5603 5612 5621 5629 5637 5644 5651 5658 5664 5671 5677
5315 5323 5331 5339 5347 5356 5365 5374 5383 5391 5400 5410 5421 5432 5443 5456 5468 5480 5492 5505 5516 5526 5538 5548 5558 5569 5579 5588 5598 5607 5616 5624 5632 5639 5646 5652 5658 5663
5309 5317 5325 5333 5341 5350 5359 5368 5377 5386 5395 5404 5414 5424 5434 5444 5455 5466 5479 5492 5503 5514 5525 5535 5544 5555 5564 5573 5583 5593 5602 5610 5617 5624 5631 5638 5644 5648
5305 5312 5319 5327 5335 5344 5353 5362 5371 5380 5389 5398 5407 5416 5425 5435 5445 5455 5467 5481 5492 5504 5513 5523 5532 5542 5551 5561 5569 5579 5587 5595 5601 5608 5616 5622 5628 5634
5301 5307 5314 5321 5330 5338 5347 5356 5365 5374 5383 5392 5401 5409 5418 5426 5436 5447 5458 5470 5481 5492 5502 5512 5522 5532 5541 5549 5557 5565 5572 5579 5586 5594 5601 5607 5614 5620
5298 5304 5310 5317 5325 5333 5342 5351 5360 5369 5378 5386 5395 5403 5411 5420 5429 5440 5450 5461 5471 5481 5491 5500 5509 5519 5528 5536 5543 5551 5558 5565 5572 5580 5587 5593 5599 5605
5295 5301 5307 5314 5321 5329 5337 5346 5354 5363 5372 5380 5389 5398 5406 5415 5424 5433 5443 5453 5462 5471 5479 5488 5496 5505 5513 5520 5528 5536 5544 5552 5559 5567 5574 5580 5585 5591
5293 5297 5303 5310 5317 5325 5333 5341 5350 5358 5366 5375 5383 5392 5401 5409 5418 5426 5436 5444 5453 5461 5469 5477 5485 5492 5500 5508 5516 5524 5533 5541 5548 5555 5561 5567 5573 5578
5291 5294 5299 5305 5312 5320 5328 5336 5344 5352 5360 5369 5377 5386 5394 5403 5411 5419 5428 5436 5444 5453 5461 5469 5476 5484 5492 5499 5507 5515 5523 5531 5537 5544 5550 5556 5562 5566
5290 5292 5295 5300 5307 5315 5323 5331 5339 5347 5355 5363 5370 5379 5387 5396 5404 5412 5420 5428 5436 5444 5452 5460 5468 5476 5484 5491 5498 5506 5514 5521 5528 5534 5540 5545 5550 5554
5289 5290 5292 5296 5302 5309 5317 5325 5333 5341 5349 5357 5364 5372 5380 5388 5396 5405 5413 5420 5428 5436 5444 5452 5459 5467 5475 5483 5490 5497 5504 5511 5518 5524 5529 5534 5539 5543
5289 5289 5290 5292 5297 5303 5310 5318 5326 5334 5342 5350 5357 5365 5373 5381 5389 5396 5404 5412 5420 5428 5436 5443 5450 5458 5466 5474 5481 5487 5494 5500 5507 5513 5518 5523 5528 5532
5292 5290 5289 5290 5293 5298 5304 5311 5319 5327 5335 5343 5350 5357 5365 5372 5380 5388 5395 5403 5411 5418 5426 5434 5441 5449 5456 5463 5470 5477 5484 5490 5496 5502 5508 5513 5516 5520
5299 5294 5291 5290 5291 5294 5298 5304 5311 5319 5326 5334 5342 5349 5356 5364 5371 5379 5386 5394 5401 5409 5416 5424 5431 5439 5446 5453 5460 5466 5473 5480 5487 5493 5498 5502 5506 5509